[[{"header":{"parameterUnit":"m.s-1","parameterCategory":2,"la1":30.2992,"la2":30.254,"lo1":-89.0895,"lo2":-89.0443,"dy":0.0025,"dx":0.0025,"nx":19,"ny":19,"refTime":"2026-05-05T09:00:00:Z","depth":"0","parameterNumber":2,"parameterNumberName":"U-component_of_CURRENTS"},"data":[0,0,0,-0.1214,-0.1215,-0.1296,-0.1297,-0.1385,-0.1385,0,0,0,0,0,0,0,0,0,0,0,-0.1175,-0.1175,-0.1213,-0.1215,-0.1296,-0.1297,-0.1384,-0.1385,0,0,0,0,0,0,0,0,0,0,0,-0.1174,-0.1175,-0.1175,-0.1216,-0.1296,-0.1297,-0.1384,-0.1327,0,0,0,0,0,0,0,0,0,0,-0.1251,-0.1212,-0.1175,-0.1175,-0.1216,-0.1296,-0.1297,-0.1325,-0.1331,-0.1343,0,-0.1348,0,-0.1373,-0.1391,-0.1391,0,0,0,-0.1217,-0.1206,-0.1235,-0.1175,-0.1217,-0.1296,-0.126,-0.1328,-0.1335,-0.1351,-0.135,-0.1353,-0.1375,-0.1391,-0.1392,-0.1569,-0.157,0,0,-0.1212,-0.1186,-0.123,-0.1239,-0.1229,-0.1258,-0.1263,-0.1333,-0.1331,-0.135,-0.1356,-0.1376,-0.1392,-0.1392,-0.1568,-0.1569,0,0,0,-0.1199,-0.1183,-0.121,-0.1235,-0.1253,-0.126,-0.1266,-0.1328,-0.1339,-0.1357,-0.1377,-0.1392,-0.1393,-0.1566,-0.1568,-0.1497,0,0,0,-0.1196,-0.1175,-0.1207,-0.1192,-0.1252,-0.1293,-0.1259,-0.1334,-0.1343,-0.1377,-0.1392,-0.1394,-0.1565,-0.1567,-0.1495,-0.1408,0,0,0,-0.1173,-0.1173,-0.118,-0.1191,-0.1227,-0.1293,-0.1308,-0.1336,-0.1355,-0.1391,-0.1394,-0.1564,-0.1567,-0.1494,-0.1409,-0.1296,0,0,0,-0.1146,-0.115,-0.1179,-0.1194,-0.1227,-0.1292,-0.1308,-0.1358,-0.1389,-0.1393,-0.1565,-0.1568,-0.1494,-0.141,-0.1299,-0.1154,-0.1131,0,0,-0.1138,-0.1148,-0.116,-0.1188,-0.1235,-0.1282,-0.1348,-0.1392,-0.1449,-0.1537,-0.1541,-0.1496,-0.1409,-0.1297,-0.1339,-0.1308,0,0,0,-0.115,-0.1149,-0.1171,-0.1203,-0.1264,-0.131,-0.1384,-0.1434,-0.1524,-0.1484,-0.1582,-0.153,-0.1459,-0.1382,-0.1361,-0.1336,-0.1583,-0.1582,-0.1582,-0.109,-0.1132,-0.1151,-0.1208,-0.1252,-0.1347,-0.1386,-0.148,-0.1542,-0.1602,-0.1537,-0.1489,-0.1416,-0.1396,-0.1378,-0.1644,-0.1644,-0.1644,-0.1644,-0.1065,-0.1069,-0.1123,-0.1152,-0.122,-0.1276,-0.1393,-0.1444,-0.1482,-0.158,-0.1515,-0.1395,-0.1366,-0.1356,-0.164,-0.1641,-0.1641,-0.1642,-0.1642,-0.1014,-0.1021,-0.1045,-0.1086,-0.1122,-0.1212,-0.1219,-0.1307,-0.1377,-0.1342,-0.1217,-0.1217,-0.1138,-0.1296,-0.1296,-0.1295,-0.1294,-0.1293,-0.1293,-0.0946,-0.0976,-0.0971,-0.1014,-0.1018,-0.1041,-0.1103,-0.1106,-0.1069,-0.1097,-0.1096,-0.1138,-0.1381,-0.1314,-0.128,-0.1282,-0.1284,-0.1285,-0.1286,-0.0874,-0.0894,-0.0878,-0.0876,-0.0883,-0.0851,-0.0907,-0.0824,-0.0795,-0.0728,-0.0794,-0.0965,-0.0942,-0.0962,-0.0888,-0.0745,-0.0745,-0.0745,-0.0745,-0.0814,-0.0829,-0.0791,-0.0763,-0.0743,-0.0756,-0.0615,-0.0521,-0.0483,-0.044,-0.0562,-0.0648,-0.0671,-0.064,-0.0667,-0.0591,-0.0376,-0.0376,-0.0376,-0.076,-0.0759,-0.0708,-0.07,-0.0672,-0.0637,-0.0475,-0.0223,-0.0175,-0.0367,-0.0554,-0.057,-0.0713,-0.0751,-0.0727,-0.0766,-0.0654,0,0]},{"header":{"parameterUnit":"m.s-1","parameterCategory":2,"la1":30.2992,"la2":30.254,"lo1":-89.0895,"lo2":-89.0443,"dy":0.0025,"dx":0.0025,"nx":19,"ny":19,"refTime":"2026-05-05T09:00:00:Z","depth":"0","parameterNumber":3,"parameterNumberName":"V-component_of_CURRENTS"},"data":[0,0,0,0.0214,0.0214,0.0274,0.0275,0.0429,0.043,0,0,0,0,0,0,0,0,0,0,0,0.0194,0.0194,0.0214,0.0215,0.0274,0.0275,0.0429,0.043,0,0,0,0,0,0,0,0,0,0,0,0.0194,0.0194,0.0194,0.0215,0.0274,0.0275,0.0428,0.0367,0,0,0,0,0,0,0,0,0,0,0.0301,0.0256,0.0194,0.0194,0.0215,0.0274,0.0275,0.0364,0.0371,0.042,0,0.042,0,0.0425,0.0441,0.0442,0,0,0,0.0228,0.025,0.0274,0.0195,0.0215,0.0274,0.0251,0.0367,0.0376,0.043,0.0422,0.0427,0.0427,0.0442,0.0443,0.0468,0.0467,0,0,0.0225,0.0204,0.0268,0.0279,0.0221,0.0249,0.0253,0.0372,0.0374,0.0422,0.043,0.043,0.0443,0.0445,0.0469,0.0468,0,0,0,0.0206,0.0201,0.0221,0.0273,0.0275,0.0251,0.0255,0.0368,0.0377,0.0432,0.0431,0.0444,0.0446,0.047,0.0468,0.0298,0,0,0,0.0205,0.0189,0.0219,0.0207,0.0272,0.0309,0.0249,0.0368,0.0382,0.0431,0.0444,0.0448,0.0471,0.0469,0.0305,0.0256,0,0,0,0.0193,0.0188,0.0193,0.0206,0.0226,0.0307,0.0322,0.0371,0.0382,0.0442,0.0448,0.0472,0.0469,0.0311,0.0266,0.0268,0,0,0,0.0173,0.0149,0.0192,0.0157,0.0225,0.0196,0.0321,0.0324,0.036,0.0445,0.0471,0.0468,0.0313,0.0272,0.0273,0.0372,0.0358,0,0,0.0127,0.0143,0.0118,0.0157,0.0102,0.019,0.0132,0.0244,0.0347,0.0443,0.0443,0.0303,0.0266,0.0269,0.0243,0.0232,0,0,0,0.0091,0.0077,0.0063,0.0047,0.0048,0.0041,0.0127,0.0169,0.0242,0.0358,0.0305,0.0288,0.0295,0.0365,0.0356,0.0644,0.0458,0.0458,0.0459,0.0016,0.001,-0.0044,-0.0054,-0.0073,-0.0059,-0.0054,0.0027,0.0128,0.0126,0.0149,0.0037,0.0105,0.01,0.0392,0.0138,0.0137,0.0137,0.0136,-0.006,-0.0093,-0.0112,-0.0159,-0.0176,-0.0207,-0.0181,-0.0133,-0.009,-0.0005,0.001,0.0181,0.0081,0.0397,0.0126,0.0127,0.0129,0.013,0.0131,-0.01,-0.012,-0.014,-0.0208,-0.0263,-0.0275,-0.0306,-0.0282,-0.0201,-0.0225,-0.0047,-0.0042,0.0246,-0.0192,-0.0193,-0.0193,-0.0193,-0.0193,-0.0194,-0.0126,-0.0153,-0.0201,-0.0259,-0.0298,-0.0342,-0.0369,-0.0362,-0.0282,-0.0196,-0.0194,0.0247,-0.0061,-0.0036,-0.0198,-0.0197,-0.0196,-0.0196,-0.0196,-0.0173,-0.0177,-0.0251,-0.0292,-0.0374,-0.0403,-0.0422,-0.0369,-0.0336,-0.0277,0.0221,-0.0149,-0.0058,-0.0047,-0.0021,-0.0168,-0.0168,-0.0168,-0.0168,-0.0199,-0.021,-0.03,-0.0365,-0.043,-0.0437,-0.0399,-0.0282,0.0055,0.0332,0.0391,0.0502,0.0488,0.0619,0.0614,0.0659,0.0687,0.0689,0.069,-0.0233,-0.026,-0.0323,-0.0386,-0.0455,-0.0456,-0.0355,-0.0048,0.0522,0.0752,0.0767,0.0731,0.092,0.0875,0.1104,0.1075,0.1155,0,0]}],[{"header":{"parameterUnit":"m.s-1","parameterCategory":2,"la1":30.2992,"la2":30.254,"lo1":-89.0895,"lo2":-89.0443,"dy":0.0025,"dx":0.0025,"nx":19,"ny":19,"refTime":"2026-05-05T09:00:00:Z","depth":"2","parameterNumber":2,"parameterNumberName":"U-component_of_CURRENTS"},"data":[0,0,0,-0.1274,-0.1276,-0.1346,-0.1346,-0.1434,-0.1434,0,0,0,0,0,0,0,0,0,0,0,-0.124,-0.124,-0.1274,-0.1276,-0.1346,-0.1346,-0.1434,-0.1434,0,0,0,0,0,0,0,0,0,0,0,-0.1239,-0.124,-0.124,-0.1276,-0.1346,-0.1346,-0.1433,-0.1382,0,0,0,0,0,0,0,0,0,0,-0.1314,-0.1274,-0.124,-0.124,-0.1277,-0.1346,-0.1346,-0.1379,-0.1385,-0.14,0,-0.1402,0,-0.1424,-0.144,-0.144,0,0,0,-0.1279,-0.127,-0.1297,-0.124,-0.1277,-0.1346,-0.1315,-0.1383,-0.1389,-0.1408,-0.1403,-0.1407,-0.1425,-0.144,-0.1441,-0.162,-0.1621,0,0,-0.1275,-0.1248,-0.1292,-0.13,-0.1284,-0.1313,-0.1317,-0.1387,-0.1383,-0.1404,-0.141,-0.1427,-0.1441,-0.1442,-0.1619,-0.162,0,0,0,-0.1262,-0.1245,-0.1271,-0.1296,-0.1311,-0.1315,-0.132,-0.138,-0.139,-0.1411,-0.1428,-0.1442,-0.1443,-0.1617,-0.1619,-0.1559,0,0,0,-0.126,-0.1238,-0.1269,-0.1253,-0.131,-0.1346,-0.1312,-0.1385,-0.1394,-0.1427,-0.1442,-0.1443,-0.1616,-0.1618,-0.1557,-0.1483,0,0,0,-0.1238,-0.1236,-0.1242,-0.1251,-0.1283,-0.1345,-0.136,-0.1388,-0.1405,-0.144,-0.1444,-0.1615,-0.1618,-0.1555,-0.1483,-0.1381,0,0,0,-0.1212,-0.122,-0.1241,-0.1268,-0.1282,-0.1353,-0.1359,-0.1409,-0.144,-0.1442,-0.1616,-0.1619,-0.1555,-0.1483,-0.1383,-0.129,-0.1273,0,0,-0.1213,-0.1219,-0.1242,-0.1263,-0.1336,-0.1344,-0.142,-0.1457,-0.1501,-0.159,-0.1594,-0.1557,-0.1483,-0.1381,-0.1476,-0.1452,0,0,0,-0.1239,-0.1239,-0.127,-0.1314,-0.1377,-0.1424,-0.1474,-0.1503,-0.1583,-0.1535,-0.1641,-0.1596,-0.1532,-0.1485,-0.1469,-0.1634,-0.1634,-0.1634,-0.1633,-0.1179,-0.1239,-0.1277,-0.1355,-0.1407,-0.1484,-0.1513,-0.1574,-0.1616,-0.1668,-0.161,-0.1575,-0.1534,-0.1518,-0.171,-0.171,-0.171,-0.171,-0.1709,-0.117,-0.1187,-0.1265,-0.1311,-0.1393,-0.1443,-0.1549,-0.1575,-0.1586,-0.1663,-0.1603,-0.1504,-0.1495,-0.1706,-0.1707,-0.1707,-0.1708,-0.1708,-0.1708,-0.1119,-0.1133,-0.1164,-0.1237,-0.1285,-0.1385,-0.1394,-0.1469,-0.1502,-0.1463,-0.1363,-0.1363,-0.1431,-0.1411,-0.141,-0.141,-0.1409,-0.1409,-0.1408,-0.1043,-0.1084,-0.1083,-0.1154,-0.1168,-0.1209,-0.1285,-0.1293,-0.1263,-0.1266,-0.1266,-0.1472,-0.1482,-0.1416,-0.1397,-0.1399,-0.14,-0.1401,-0.1402,-0.0967,-0.0982,-0.0984,-0.0988,-0.102,-0.1012,-0.1103,-0.1057,-0.1022,-0.0962,-0.1154,-0.1163,-0.1145,-0.116,-0.109,-0.0985,-0.0985,-0.0985,-0.0985,-0.0896,-0.0913,-0.089,-0.0877,-0.0875,-0.0916,-0.0823,-0.0872,-0.0915,-0.1002,-0.1003,-0.1101,-0.1116,-0.1103,-0.112,-0.1053,-0.0938,-0.0939,-0.0939,-0.084,-0.0848,-0.0806,-0.0812,-0.0805,-0.0787,-0.0718,-0.0732,-0.0915,-0.0948,-0.1108,-0.096,-0.111,-0.1131,-0.1121,-0.1145,-0.1039,0,0]},{"header":{"parameterUnit":"m.s-1","parameterCategory":2,"la1":30.2992,"la2":30.254,"lo1":-89.0895,"lo2":-89.0443,"dy":0.0025,"dx":0.0025,"nx":19,"ny":19,"refTime":"2026-05-05T09:00:00:Z","depth":"2","parameterNumber":3,"parameterNumberName":"V-component_of_CURRENTS"},"data":[0,0,0,0.0088,0.0089,0.0159,0.016,0.0324,0.0325,0,0,0,0,0,0,0,0,0,0,0,0.0065,0.0065,0.0088,0.0089,0.0159,0.016,0.0324,0.0326,0,0,0,0,0,0,0,0,0,0,0,0.0065,0.0065,0.0066,0.0089,0.0159,0.016,0.0323,0.0255,0,0,0,0,0,0,0,0,0,0,0.0179,0.0133,0.0065,0.0066,0.009,0.0159,0.016,0.0251,0.026,0.0309,0,0.0311,0,0.0318,0.0337,0.0338,0,0,0,0.0103,0.0126,0.0152,0.0066,0.009,0.0159,0.0132,0.0255,0.0265,0.032,0.0313,0.0319,0.0321,0.0338,0.0339,0.0378,0.0377,0,0,0.0099,0.0078,0.0145,0.0157,0.0099,0.0129,0.0133,0.026,0.0264,0.0314,0.0322,0.0323,0.0339,0.034,0.0378,0.0377,0,0,0,0.0079,0.0075,0.0096,0.0151,0.0155,0.0131,0.0136,0.0258,0.0267,0.0324,0.0325,0.034,0.0342,0.0379,0.0378,0.0201,0,0,0,0.0077,0.0062,0.0094,0.0082,0.0152,0.0195,0.0131,0.0258,0.0272,0.0324,0.034,0.0344,0.038,0.0379,0.0208,0.0143,0,0,0,0.0064,0.0061,0.0067,0.0081,0.0105,0.0193,0.0209,0.0261,0.0273,0.0338,0.0344,0.0381,0.0379,0.0214,0.0153,0.015,0,0,0,0.0043,0.0015,0.0066,0.0018,0.0104,0.0075,0.0208,0.0216,0.0255,0.0341,0.038,0.0378,0.0216,0.016,0.0155,0.029,0.0277,0,0,-0.0011,0.0008,-0.0027,0.0019,-0.0049,0.0067,0.0006,0.0131,0.0247,0.0349,0.035,0.0205,0.0154,0.0151,0.0172,0.0163,0,0,0,-0.0059,-0.0074,-0.0093,-0.0115,-0.0112,-0.0113,-0.0004,0.0056,0.0146,0.026,0.0214,0.0188,0.0191,0.0284,0.0275,0.0368,0.0369,0.0369,0.0369,-0.0132,-0.0151,-0.022,-0.0239,-0.0258,-0.0224,-0.0208,-0.0095,0.0024,0.0035,0.0048,-0.0068,0.0024,0.0021,0.005,0.0049,0.0049,0.0048,0.0048,-0.0225,-0.0269,-0.0299,-0.0358,-0.0374,-0.0396,-0.0349,-0.0279,-0.0209,-0.0106,-0.0093,0.0097,0.0002,0.0034,0.0036,0.0038,0.004,0.0041,0.0042,-0.0266,-0.0292,-0.0318,-0.0406,-0.0464,-0.0472,-0.0496,-0.0452,-0.0337,-0.0357,-0.0147,-0.0142,-0.0141,-0.0319,-0.0319,-0.0319,-0.032,-0.032,-0.032,-0.0289,-0.0325,-0.0379,-0.0452,-0.0498,-0.0547,-0.057,-0.0547,-0.0432,-0.031,-0.0307,-0.0189,-0.0178,-0.0158,-0.0326,-0.0325,-0.0324,-0.0323,-0.0323,-0.0339,-0.0337,-0.0431,-0.0477,-0.0576,-0.0612,-0.0638,-0.0547,-0.0487,-0.04,-0.025,-0.025,-0.0156,-0.0145,-0.0122,-0.0271,-0.0271,-0.0271,-0.027,-0.0358,-0.0372,-0.0483,-0.0562,-0.0638,-0.0649,-0.0611,-0.0433,-0.0254,-0.0038,-0.0048,0.0047,0.004,0.0152,0.0156,0.0188,0.012,0.0121,0.0122,-0.0393,-0.0431,-0.0509,-0.0587,-0.0669,-0.0663,-0.059,-0.0287,0.0174,0.0137,0.002,-0.0244,-0.0128,-0.013,0.0031,0.0041,0.0089,0,0]}],[{"header":{"parameterUnit":"m.s-1","parameterCategory":2,"la1":30.2992,"la2":30.254,"lo1":-89.0895,"lo2":-89.0443,"dy":0.0025,"dx":0.0025,"nx":19,"ny":19,"refTime":"2026-05-05T09:00:00:Z","depth":"4","parameterNumber":2,"parameterNumberName":"U-component_of_CURRENTS"},"data":[0,0,0,-0.1076,-0.1079,-0.1226,-0.1226,-0.1319,-0.132,0,0,0,0,0,0,0,0,0,0,0,-0.1026,-0.1027,-0.1076,-0.1079,-0.1225,-0.1226,-0.1319,-0.132,0,0,0,0,0,0,0,0,0,0,0,-0.1026,-0.1027,-0.1029,-0.108,-0.1225,-0.1226,-0.1319,-0.1231,0,0,0,0,0,0,0,0,0,0,-0.11,-0.1066,-0.1027,-0.1029,-0.1081,-0.1225,-0.1226,-0.1228,-0.1236,-0.1227,0,-0.1261,0,-0.1292,-0.1324,-0.1324,0,0,0,-0.1076,-0.1059,-0.1103,-0.1029,-0.1082,-0.1225,-0.1159,-0.1233,-0.1243,-0.1238,-0.1262,-0.1267,-0.1294,-0.1325,-0.1325,-0.1403,-0.1403,0,0,-0.1068,-0.1045,-0.1096,-0.1109,-0.1133,-0.1154,-0.1163,-0.124,-0.125,-0.1263,-0.1269,-0.1295,-0.1325,-0.1326,-0.1402,-0.1403,0,0,0,-0.1047,-0.104,-0.1083,-0.1104,-0.1139,-0.1158,-0.1169,-0.1247,-0.1264,-0.1271,-0.1296,-0.1325,-0.1326,-0.1402,-0.1402,-0.1458,0,0,0,-0.1042,-0.1028,-0.108,-0.1067,-0.1138,-0.1207,-0.1174,-0.1259,-0.1269,-0.1296,-0.1326,-0.1327,-0.1401,-0.1402,-0.1456,-0.1473,0,0,0,-0.1017,-0.1025,-0.1047,-0.1065,-0.1131,-0.1207,-0.1229,-0.1262,-0.1284,-0.1325,-0.1327,-0.1401,-0.1402,-0.1454,-0.1469,-0.1501,0,0,0,-0.0981,-0.1025,-0.1047,-0.1107,-0.113,-0.1226,-0.1229,-0.13,-0.1339,-0.1326,-0.1402,-0.1402,-0.1453,-0.1467,-0.1499,-0.1251,0,0,0,-0.1013,-0.1028,-0.1065,-0.1088,-0.1174,-0.1205,-0.1294,-0.1344,-0.1344,-0.1368,-0.1371,-0.1457,-0.1469,-0.1501,-0.1303,0,0,0,0,-0.106,-0.1085,-0.1117,-0.1175,-0.1241,-0.1306,-0.1358,-0.1385,-0.1433,-0.1373,-0.1458,-0.1464,-0.1482,-0.1331,-0.1406,-0.1406,-0.1406,-0.1406,-0.1406,-0.1049,-0.1099,-0.1161,-0.1231,-0.129,-0.138,-0.1436,-0.1475,-0.1471,-0.1501,-0.1511,-0.1574,-0.1416,-0.1516,-0.1516,-0.1516,-0.1517,-0.1517,-0.1517,-0.1082,-0.1109,-0.1185,-0.1261,-0.1334,-0.1405,-0.1505,-0.153,-0.1599,-0.1572,-0.1588,-0.1402,-0.1522,-0.1521,-0.152,-0.152,-0.1519,-0.1519,-0.1519,-0.1049,-0.1068,-0.1136,-0.1237,-0.1324,-0.1416,-0.1469,-0.1568,-0.1631,-0.1668,-0.1494,-0.1611,-0.1604,-0.1674,-0.1674,-0.1674,-0.1674,-0.1675,-0.1675,-0.0971,-0.1043,-0.1091,-0.1207,-0.1254,-0.1329,-0.1458,-0.149,-0.1597,-0.1525,-0.1679,-0.1627,-0.1621,-0.1613,-0.1678,-0.1678,-0.1677,-0.1677,-0.1677,-0.0915,-0.095,-0.1008,-0.1061,-0.1159,-0.1196,-0.1337,-0.1356,-0.1395,-0.1391,-0.1447,-0.1457,-0.1412,-0.1413,-0.1395,-0.1399,-0.1396,-0.1393,0,-0.0847,-0.0879,-0.0923,-0.0966,-0.0996,-0.1105,-0.106,-0.1125,-0.1244,-0.121,-0.1426,-0.1489,-0.1495,-0.1443,-0.1439,-0.1415,0,0,0,-0.08,-0.0822,-0.0819,-0.0883,-0.0909,-0.0945,-0.1035,-0.1004,-0.1238,-0.1175,-0.1319,-0.1338,-0.1493,-0.1689,-0.1645,-0.1639,-0.1622,0,0]},{"header":{"parameterUnit":"m.s-1","parameterCategory":2,"la1":30.2992,"la2":30.254,"lo1":-89.0895,"lo2":-89.0443,"dy":0.0025,"dx":0.0025,"nx":19,"ny":19,"refTime":"2026-05-05T09:00:00:Z","depth":"4","parameterNumber":3,"parameterNumberName":"V-component_of_CURRENTS"},"data":[0,0,0,-0.0146,-0.0145,-0.0062,-0.0062,0.0083,0.0084,0,0,0,0,0,0,0,0,0,0,0,-0.0176,-0.0175,-0.0146,-0.0145,-0.0062,-0.0062,0.0083,0.0084,0,0,0,0,0,0,0,0,0,0,0,-0.0176,-0.0175,-0.0175,-0.0145,-0.0062,-0.0062,0.0082,0.0014,0,0,0,0,0,0,0,0,0,0,-0.007,-0.0109,-0.0176,-0.0175,-0.0144,-0.0063,-0.0062,0.001,0.0018,0.0052,0,0.0054,0,0.0068,0.0093,0.0094,0,0,0,-0.013,-0.0116,-0.0095,-0.0175,-0.0144,-0.0063,-0.0095,0.0014,0.0023,0.0062,0.0056,0.0062,0.007,0.0094,0.0095,0.0255,0.0256,0,0,-0.0135,-0.0154,-0.0101,-0.009,-0.0134,-0.0098,-0.0093,0.002,0.0026,0.0057,0.0065,0.0073,0.0095,0.0096,0.0254,0.0255,0,0,0,-0.0158,-0.0157,-0.0139,-0.0095,-0.0086,-0.0096,-0.009,0.0021,0.0026,0.0067,0.0074,0.0096,0.0098,0.0253,0.0254,0.0174,0,0,0,-0.016,-0.0171,-0.0142,-0.0151,-0.0089,-0.0037,-0.0092,0.0018,0.0031,0.0074,0.0096,0.0099,0.0253,0.0254,0.0174,0.0121,0,0,0,-0.0177,-0.0173,-0.0168,-0.0152,-0.0123,-0.0039,-0.0027,0.0021,0.0035,0.0094,0.0099,0.0252,0.0254,0.0174,0.0123,0.018,0,0,0,-0.0192,-0.0191,-0.0168,-0.0158,-0.0124,-0.0067,-0.0027,0.0025,0.0072,0.0097,0.0253,0.0254,0.0175,0.0125,0.018,0.0129,0,0,0,-0.0199,-0.0192,-0.0184,-0.0163,-0.0137,-0.0077,-0.0025,0.0048,0.0115,0.0219,0.0223,0.0174,0.0124,0.018,0.0233,0,0,0,0,-0.0192,-0.0195,-0.0178,-0.0161,-0.0109,-0.0071,0.0012,0.007,0.0164,0.0149,0.0232,0.0204,0.0241,0.0216,0.0263,0.0263,0.0262,0.0262,0.0262,-0.0234,-0.0211,-0.0212,-0.0181,-0.0143,-0.0053,-0.0,0.01,0.0163,0.0208,0.0181,0.0224,0.0197,0.0243,0.0243,0.0242,0.0242,0.0242,0.0242,-0.0273,-0.0282,-0.026,-0.0257,-0.0206,-0.0158,-0.0022,0.0038,0.016,0.0189,0.0231,0.0184,0.0235,0.0236,0.0237,0.0238,0.0239,0.0239,0.0239,-0.0316,-0.0321,-0.0324,-0.0336,-0.032,-0.024,-0.019,-0.0074,0.0081,0.0108,0.0161,0.0203,0.0163,0.0155,0.0155,0.0156,0.0156,0.0156,0.0156,-0.036,-0.0365,-0.0408,-0.0416,-0.0432,-0.0411,-0.0282,-0.0177,-0.0009,0.0075,0.0103,0.0196,0.0199,0.0163,0.0156,0.0156,0.0156,0.0156,0.0156,-0.0401,-0.0415,-0.0478,-0.0512,-0.0548,-0.0528,-0.0427,-0.0198,-0.0072,0.0069,0.0098,0.01,0.0137,0.0142,0.0104,0.008,0.0079,0.0078,0,-0.0434,-0.0445,-0.0535,-0.06,-0.0633,-0.059,-0.0453,-0.0296,-0.0072,-0.0095,-0.0045,-0.0024,-0.0018,0.0011,0.0016,-0.0036,0,0,0,-0.0465,-0.0488,-0.0557,-0.0624,-0.0667,-0.0516,-0.0413,-0.0332,-0.0139,0.0016,0.0061,0.0066,0.0095,0.0157,0.0222,0.0225,0.0171,0,0]}]]